Home   Weather   Córdoba   Past weeks

Flag for Spain Past Weather in Córdoba, Spain — Yesterday and Last 2 Weeks

Now
57 °F

Scattered clouds.


Feels Like: 57 °F
Forecast: 49 / 65 °F
Wind: 3 mph from East

Location: Cordoba / Aeropuerto

Current Time: Dec 4, 2016 at 11:28:57 am

Latest Report: Dec 4, 2016 at 11:00 am


Visibility: N/A

Pressure: 29.86 "Hg

Humidity: 94%

Dew Point: 55 °F

Location of CórdobaLocation

Past Weather in Córdoba — Graph

°F

Córdoba Temperature Yesterday

Maximum temperature yesterday: 61 °F (at 3:30 pm)
Minimum temperature yesterday: 54 °F (at 12:30 am)
Average temperature yesterday: 56 °F

High & Low Weather Summary for the Past Weeks

 TemperatureHumidityPressure
High68 °F (Nov 30, 3:00 pm)100% (Nov 20, 2:00 pm)30.27 "Hg (Nov 20, 2:00 pm)
Low41 °F (Nov 24, 5:30 am)49% (Nov 30, 3:00 pm)29.59 "Hg (Nov 22, 3:00 pm)
Average54 °F87%29.88 "Hg
* Reported Nov 19 10:00 am — Dec 4 10:00 am, Córdoba, Weather by CustomWeather, © 2016

Note: Actual official high and low records may vary slightly from our data, if they occured in-between our weather recording intervals... More about our weather records

Advertising

Córdoba Weather History for the Previous 24 Hours

Scroll right to see more
 ConditionsComfort  
Time TempWeatherWind HumidityBarometerVisibility
10:00 am
Sun, Dec 4
57 °FPassing clouds.8 mph94%29.83 "HgN/A
9:30 am55 °FScattered clouds.5 mph100%29.83 "HgN/A
9:00 am55 °FScattered clouds.5 mph100%29.83 "HgN/A
8:30 am55 °FLight rain. Scattered clouds.7 mph100%29.80 "Hg6 mi
8:00 am57 °FLight rain. Passing clouds.8 mph94%29.80 "Hg4 mi
7:30 am57 °FLight rain. Passing clouds.8 mph94%29.80 "Hg6 mi
7:00 am57 °FSprinkles. Passing clouds.5 mph94%29.80 "Hg6 mi
6:30 am57 °FSprinkles. Passing clouds.3 mph94%29.80 "HgN/A
6:00 am57 °FPassing clouds.7 mph94%29.77 "HgN/A
5:30 am55 °FPassing clouds.3 mph100%29.77 "HgN/A
5:00 am55 °FSprinkles. Passing clouds.5 mph100%29.77 "Hg6 mi
4:30 am57 °FPassing clouds.7 mph94%29.77 "HgN/A
3:30 am57 °FPassing clouds.5 mph94%29.77 "HgN/A
3:00 am55 °FSprinkles. Overcast.1 mph100%29.77 "HgN/A
2:30 am55 °FClear.5 mph100%29.77 "Hg10 mi
2:00 am57 °FSprinkles. Overcast.2 mph94%29.77 "Hg5 mi
1:30 am55 °FSprinkles. Passing clouds.3 mph100%29.80 "Hg6 mi
1:00 am57 °FClear.1 mph94%29.80 "Hg10 mi
12:30 am57 °FClear.2 mph94%29.77 "Hg10 mi
12:00 am55 °FPassing clouds.5 mph100%29.77 "HgN/A
11:30 pm
Sat, Dec 3
57 °FLight rain. Clear.5 mph94%29.80 "HgN/A
11:00 pm57 °FRain. Clear.6 mph94%29.80 "Hg3 mi
10:30 pm57 °FRain showers. Overcast.3 mph94%29.80 "Hg4 mi
10:00 pm57 °FSprinkles. Overcast.2 mph94%29.80 "Hg6 mi
9:30 pm57 °FLight rain. Clear.2 mph94%29.80 "Hg6 mi
9:00 pm57 °FRain. Clear.3 mph94%29.80 "Hg4 mi
8:00 pm57 °FClear.7 mph94%29.77 "Hg10 mi
7:30 pm57 °FRain showers. Passing clouds.5 mph94%29.77 "Hg3 mi
7:00 pm57 °FSprinkles. Passing clouds.2 mph94%29.77 "Hg5 mi
6:30 pm57 °FRain. Passing clouds.2 mph94%29.77 "Hg5 mi
6:00 pm57 °FHeavy rain. Passing clouds.2 mph88%29.80 "Hg4 mi
5:30 pm59 °FSunny.6 mph82%29.77 "Hg10 mi
5:00 pm61 °FSunny.6 mph77%29.74 "Hg10 mi
4:30 pm61 °FSunny.6 mph72%29.77 "Hg10 mi
4:00 pm61 °FPassing clouds.8 mph77%29.77 "HgN/A
3:30 pm61 °FSunny.7 mph72%29.77 "Hg10 mi
3:00 pm59 °FScattered clouds.9 mph77%29.77 "HgN/A
2:30 pm59 °FScattered clouds.8 mph77%29.80 "HgN/A
2:00 pm59 °FScattered clouds.6 mph77%29.83 "HgN/A
1:30 pm59 °FPartly sunny.6 mph77%29.83 "HgN/A
1:00 pm57 °FPartly sunny.9 mph82%29.86 "HgN/A
12:30 pm57 °FPartly sunny.9 mph82%29.86 "HgN/A
12:00 pm57 °FOvercast.9 mph82%29.89 "HgN/A
11:30 am55 °FOvercast.8 mph88%29.89 "HgN/A
11:00 am55 °FOvercast.9 mph82%29.89 "HgN/A
Weather by CustomWeather, © 2016

See weather overviewHow to use our weather pages